This is the latest recevied weather packets stored in our database for station/object WC4PEM-9. If no packets are shown the sender has not sent any weather packets the latest 10 day(s).
| Time | Temp. | Humidity | Pressure | Rain* | Wind** | Luminosity | Snow |
|---|---|---|---|---|---|---|---|
| 1777784916 | 20° C | 94% | 1014.5 hPa | 2.29 mm | - | - | - |
| 1777784848 | 20° C | 94% | 1014.5 hPa | 2.03 mm | - | - | - |
| 1777784616 | 20° C | 94% | 1014.5 hPa | 2.03 mm | - | - | - |
| 1777784316 | 20° C | 94% | 1014.5 hPa | 1.78 mm | - | - | - |
| 1777784016 | 20.56° C | 94% | 1014.6 hPa | 1.27 mm | - | - | - |
| 1777783716 | 21.11° C | 94% | 1014.6 hPa | 1.02 mm | - | - | - |
| 1777783416 | 21.11° C | 94% | 1014.3 hPa | 0.76 mm | - | - | - |
| 1777783116 | 21.11° C | 94% | 1014.3 hPa | 0.76 mm | - | - | - |
| 1777782971 | 21.11° C | 94% | 1014 hPa | 0.76 mm | - | - | - |
| 1777782816 | 21.11° C | 94% | 1014 hPa | 0.76 mm | - | - | - |
| 1777782791 | 21.67° C | 94% | 1013.9 hPa | 0.51 mm | - | - | - |
| 1777782516 | 21.67° C | 94% | 1013.9 hPa | 0.51 mm | - | - | - |
| 1777782216 | 21.67° C | 94% | 1013.6 hPa | 0 mm | - | - | - |
| 1777782187 | 21.67° C | 94% | 1013.8 hPa | 0 mm | - | - | - |
| 1777781916 | 21.67° C | 94% | 1013.8 hPa | 0 mm | - | - | - |
| 1777781847 | 21.67° C | 94% | 1013.6 hPa | 0 mm | - | - | - |
| 1777781657 | 21.67° C | 94% | 1013.6 hPa | 0 mm | - | - | - |
| 1777781616 | 21.67° C | 94% | 1013.6 hPa | 0 mm | - | - | - |
| 1777781513 | 21.67° C | 94% | 1013.6 hPa | 0 mm | - | - | - |
| 1777781316 | 21.67° C | 94% | 1013.6 hPa | 0 mm | - | - | - |
| 1777781016 | 21.67° C | 94% | 1013.4 hPa | 0 mm | - | - | - |
| 1777780716 | 21.11° C | 94% | 1013.1 hPa | 0 mm | - | - | - |
| 1777780416 | 21.67° C | 94% | 1013.3 hPa | 0 mm | - | - | - |
| 1777780362 | 21.11° C | 94% | 1013.1 hPa | 0 mm | - | - | - |
| 1777780116 | 21.11° C | 94% | 1013.1 hPa | 0 mm | - | - | - |
* Rain latest hour (hover to see other rain measurements)
** Current wind speed in m/s (hover to see current wind gust speed)